"Time","Value","Approval","myLocation"
"2023-04-18 00:00",18.7705207254642,"Approved","OW405"
"2023-04-18 01:00",18.7715180986627,"Approved","OW405"
"2023-04-18 02:00",18.7715154718611,"Approved","OW405"
"2023-04-18 03:00",18.7725128450596,"Approved","OW405"
"2023-04-18 04:00",18.772510218258,"Approved","OW405"
"2023-04-18 05:00",18.7725075914565,"Approved","OW405"
"2023-04-18 06:00",18.7725049646549,"Approved","OW405"
"2023-04-18 07:00",18.7735023378534,"Approved","OW405"
"2023-04-18 08:00",18.7724997110518,"Approved","OW405"
"2023-04-18 09:00",18.7734970842503,"Approved","OW405"
"2023-04-18 10:00",18.7734944574487,"Approved","OW405"
"2023-04-18 11:00",18.7734918306472,"Approved","OW405"
"2023-04-18 12:00",18.7734892038456,"Approved","OW405"
"2023-04-18 13:00",18.7734865770441,"Approved","OW405"
"2023-04-18 14:00",18.7734839502425,"Approved","OW405"
"2023-04-18 15:00",18.774481323441,"Approved","OW405"
"2023-04-18 16:00",18.7734786966394,"Approved","OW405"
"2023-04-18 17:00",18.7744760698379,"Approved","OW405"
"2023-04-18 18:00",18.7734734430363,"Approved","OW405"
"2023-04-18 19:00",18.7734708162348,"Approved","OW405"
"2023-04-18 20:00",18.7734681894333,"Approved","OW405"
"2023-04-18 21:00",18.7734655626317,"Approved","OW405"
"2023-04-18 22:00",18.7734629358302,"Approved","OW405"
"2023-04-18 23:00",18.7734603090286,"Approved","OW405"
"2023-04-19 00:00",18.7734576822271,"Approved","OW405"
"2023-04-19 01:00",18.7734550554255,"Approved","OW405"
"2023-04-19 02:00",18.773452428624,"Approved","OW405"
"2023-04-19 03:00",18.7744498018224,"Approved","OW405"
"2023-04-19 04:00",18.7744471750209,"Approved","OW405"
"2023-04-19 05:00",18.7744445482193,"Approved","OW405"
"2023-04-19 06:00",18.7744419214178,"Approved","OW405"
"2023-04-19 07:00",18.7744392946162,"Approved","OW405"
"2023-04-19 08:00",18.7744366678147,"Approved","OW405"
"2023-04-19 09:00",18.7744340410131,"Approved","OW405"
"2023-04-19 10:00",18.7744314142116,"Approved","OW405"
"2023-04-19 11:00",18.77442878741,"Approved","OW405"
"2023-04-19 12:00",18.7744261606085,"Approved","OW405"
"2023-04-19 13:00",18.7744235338069,"Approved","OW405"
"2023-04-19 14:00",18.7744209070054,"Approved","OW405"
"2023-04-19 15:00",18.7754182802038,"Approved","OW405"
"2023-04-19 16:00",18.7754156534023,"Approved","OW405"
"2023-04-19 17:00",18.7744130266007,"Approved","OW405"
"2023-04-19 18:00",18.7744103997992,"Approved","OW405"
"2023-04-19 19:00",18.7724077729976,"Approved","OW405"
"2023-04-19 20:00",18.7724051461961,"Approved","OW405"
"2023-04-19 21:00",18.7724025193946,"Approved","OW405"
"2023-04-19 22:00",18.772399892593,"Approved","OW405"
"2023-04-19 23:00",18.7723972657915,"Approved","OW405"
"2023-04-20 00:00",18.7733946389899,"Approved","OW405"
"2023-04-20 01:00",18.7733920121884,"Approved","OW405"
"2023-04-20 02:00",18.7743893853868,"Approved","OW405"
"2023-04-20 03:00",18.7743867585853,"Approved","OW405"
"2023-04-20 04:00",18.7753841317837,"Approved","OW405"
"2023-04-20 05:00",18.7753815049822,"Approved","OW405"
"2023-04-20 06:00",18.7753788781806,"Approved","OW405"
"2023-04-20 07:00",18.7753762513791,"Approved","OW405"
"2023-04-20 08:00",18.7753736245775,"Approved","OW405"
"2023-04-20 09:00",18.776370997776,"Approved","OW405"
"2023-04-20 10:00",18.7753683709744,"Approved","OW405"
"2023-04-20 11:00",18.7763657441729,"Approved","OW405"
"2023-04-20 12:00",18.7753631173713,"Approved","OW405"
"2023-04-20 13:00",18.7753604905698,"Approved","OW405"
"2023-04-20 14:00",18.7753578637682,"Approved","OW405"
"2023-04-20 15:00",18.7763552369667,"Approved","OW405"
"2023-04-20 16:00",18.7763526101651,"Approved","OW405"
"2023-04-20 17:00",18.7753499833636,"Approved","OW405"
"2023-04-20 18:00",18.775347356562,"Approved","OW405"
"2023-04-20 19:00",18.7753447297605,"Approved","OW405"
"2023-04-20 20:00",18.7743421029589,"Approved","OW405"
"2023-04-20 21:00",18.7753394761574,"Approved","OW405"
"2023-04-20 22:00",18.7753368493559,"Approved","OW405"
"2023-04-20 23:00",18.7753342225543,"Approved","OW405"
"2023-04-21 00:00",18.7753315957528,"Approved","OW405"
"2023-04-21 01:00",18.7753289689512,"Approved","OW405"
"2023-04-21 02:00",18.7753263421497,"Approved","OW405"
"2023-04-21 03:00",18.7753237153481,"Approved","OW405"
"2023-04-21 04:00",18.7763210885466,"Approved","OW405"
"2023-04-21 05:00",18.776318461745,"Approved","OW405"
"2023-04-21 06:00",18.7763158349435,"Approved","OW405"
"2023-04-21 07:00",18.7763132081419,"Approved","OW405"
"2023-04-21 08:00",18.7763105813404,"Approved","OW405"
"2023-04-21 09:00",18.7763079545388,"Approved","OW405"
"2023-04-21 10:00",18.7763053277373,"Approved","OW405"
"2023-04-21 11:00",18.7773027009357,"Approved","OW405"
"2023-04-21 12:00",18.7773000741342,"Approved","OW405"
"2023-04-21 13:00",18.7772974473326,"Approved","OW405"
"2023-04-21 14:00",18.7772948205311,"Approved","OW405"
"2023-04-21 15:00",18.7772921937295,"Approved","OW405"
"2023-04-21 16:00",18.777289566928,"Approved","OW405"
"2023-04-21 17:00",18.7762869401264,"Approved","OW405"
"2023-04-21 18:00",18.7752843133249,"Approved","OW405"
"2023-04-21 19:00",18.7752816865233,"Approved","OW405"
"2023-04-21 20:00",18.7752790597218,"Approved","OW405"
"2023-04-21 21:00",18.7742764329202,"Approved","OW405"
"2023-04-21 22:00",18.7742738061187,"Approved","OW405"
"2023-04-21 23:00",18.7742711793172,"Approved","OW405"
"2023-04-22 00:00",18.7752685525156,"Approved","OW405"
"2023-04-22 01:00",18.7752659257141,"Approved","OW405"
"2023-04-22 02:00",18.7762632989125,"Approved","OW405"
"2023-04-22 03:00",18.776260672111,"Approved","OW405"
"2023-04-22 04:00",18.7772580453094,"Approved","OW405"
"2023-04-22 05:00",18.7772554185079,"Approved","OW405"
"2023-04-22 06:00",18.7772527917063,"Approved","OW405"
"2023-04-22 07:00",18.7772501649048,"Approved","OW405"
"2023-04-22 08:00",18.7772475381032,"Approved","OW405"
"2023-04-22 09:00",18.7772449113017,"Approved","OW405"
"2023-04-22 10:00",18.7772422845001,"Approved","OW405"
"2023-04-22 11:00",18.7782396576986,"Approved","OW405"
"2023-04-22 12:00",18.778237030897,"Approved","OW405"
"2023-04-22 13:00",18.7782344040955,"Approved","OW405"
"2023-04-22 14:00",18.7782317772939,"Approved","OW405"
"2023-04-22 15:00",18.7782291504924,"Approved","OW405"
"2023-04-22 16:00",18.7772265236908,"Approved","OW405"
"2023-04-22 17:00",18.7772238968893,"Approved","OW405"
"2023-04-22 18:00",18.7772212700877,"Approved","OW405"
"2023-04-22 19:00",18.7772186432862,"Approved","OW405"
"2023-04-22 20:00",18.7762160164846,"Approved","OW405"
"2023-04-22 21:00",18.7762133896831,"Approved","OW405"
"2023-04-22 22:00",18.7762107628815,"Approved","OW405"
"2023-04-22 23:00",18.77620813608,"Approved","OW405"
"2023-04-23 00:00",18.7762055092784,"Approved","OW405"
"2023-04-23 01:00",18.7762028824769,"Approved","OW405"
"2023-04-23 02:00",18.7762002556753,"Approved","OW405"
"2023-04-23 03:00",18.7771976288738,"Approved","OW405"
"2023-04-23 04:00",18.7771950020723,"Approved","OW405"
"2023-04-23 05:00",18.7771923752707,"Approved","OW405"
"2023-04-23 06:00",18.7771897484692,"Approved","OW405"
"2023-04-23 07:00",18.7781871216676,"Approved","OW405"
"2023-04-23 08:00",18.7781844948661,"Approved","OW405"
"2023-04-23 09:00",18.7771818680645,"Approved","OW405"
"2023-04-23 10:00",18.778179241263,"Approved","OW405"
"2023-04-23 11:00",18.7781766144614,"Approved","OW405"
"2023-04-23 12:00",18.7781739876599,"Approved","OW405"
"2023-04-23 13:00",18.7781713608583,"Approved","OW405"
"2023-04-23 14:00",18.7781687340568,"Approved","OW405"
"2023-04-23 15:00",18.7781661072552,"Approved","OW405"
"2023-04-23 16:00",18.7781634804537,"Approved","OW405"
"2023-04-23 17:00",18.7781608536521,"Approved","OW405"
"2023-04-23 18:00",18.7781582268506,"Approved","OW405"
"2023-04-23 19:00",18.778155600049,"Approved","OW405"
"2023-04-23 20:00",18.7781529732475,"Approved","OW405"
"2023-04-23 21:00",18.7781503464459,"Approved","OW405"
"2023-04-23 22:00",18.7781477196444,"Approved","OW405"
"2023-04-23 23:00",18.7771450928428,"Approved","OW405"
"2023-04-24 00:00",18.7771424660413,"Approved","OW405"
"2023-04-24 01:00",18.7781398392397,"Approved","OW405"
"2023-04-24 02:00",18.7781372124382,"Approved","OW405"
"2023-04-24 03:00",18.7781345856366,"Approved","OW405"
"2023-04-24 04:00",18.7781319588351,"Approved","OW405"
"2023-04-24 05:00",18.7791293320336,"Approved","OW405"
"2023-04-24 06:00",18.779126705232,"Approved","OW405"
"2023-04-24 07:00",18.7791240784305,"Approved","OW405"
"2023-04-24 08:00",18.7801214516289,"Approved","OW405"
"2023-04-24 09:00",18.7791188248274,"Approved","OW405"
"2023-04-24 10:00",18.7801161980258,"Approved","OW405"
"2023-04-24 11:00",18.7801135712243,"Approved","OW405"
"2023-04-24 12:00",18.7801109444227,"Approved","OW405"
"2023-04-24 13:00",18.7801083176212,"Approved","OW405"
"2023-04-24 14:00",18.7801056908196,"Approved","OW405"
"2023-04-24 15:00",18.7801030640181,"Approved","OW405"
"2023-04-24 16:00",18.7791004372165,"Approved","OW405"
"2023-04-24 17:00",18.779097810415,"Approved","OW405"
"2023-04-24 18:00",18.7790951836134,"Approved","OW405"
"2023-04-24 19:00",18.7780925568119,"Approved","OW405"
"2023-04-24 20:00",18.7780899300103,"Approved","OW405"
"2023-04-24 21:00",18.7780873032088,"Approved","OW405"
"2023-04-24 22:00",18.7770846764072,"Approved","OW405"
"2023-04-24 23:00",18.7770820496057,"Approved","OW405"
"2023-04-25 00:00",18.7770794228041,"Approved","OW405"
"2023-04-25 01:00",18.7770767960026,"Approved","OW405"
"2023-04-25 02:00",18.777074169201,"Approved","OW405"
"2023-04-25 03:00",18.7780715423995,"Approved","OW405"
"2023-04-25 04:00",18.7790689155979,"Approved","OW405"
"2023-04-25 05:00",18.7790662887964,"Approved","OW405"
"2023-04-25 06:00",18.7800636619949,"Approved","OW405"
"2023-04-25 07:00",18.7810610351933,"Approved","OW405"
"2023-04-25 08:00",18.7810584083918,"Approved","OW405"
"2023-04-25 09:00",18.7810557815902,"Approved","OW405"
"2023-04-25 10:00",18.7810531547887,"Approved","OW405"
"2023-04-25 11:00",18.7810505279871,"Approved","OW405"
"2023-04-25 12:00",18.7810479011856,"Approved","OW405"
"2023-04-25 13:00",18.781045274384,"Approved","OW405"
"2023-04-25 14:00",18.7810426475825,"Approved","OW405"
"2023-04-25 15:00",18.7810400207809,"Approved","OW405"
"2023-04-25 16:00",18.7810373939794,"Approved","OW405"
"2023-04-25 17:00",18.7800347671778,"Approved","OW405"
"2023-04-25 18:00",18.7790321403763,"Approved","OW405"
"2023-04-25 19:00",18.7770295135747,"Approved","OW405"
"2023-04-25 20:00",18.7770268867732,"Approved","OW405"
"2023-04-25 21:00",18.7770242599716,"Approved","OW405"
"2023-04-25 22:00",18.7770216331701,"Approved","OW405"
"2023-04-25 23:00",18.7760190063685,"Approved","OW405"
"2023-04-26 00:00",18.776016379567,"Approved","OW405"
"2023-04-26 01:00",18.7760137527654,"Approved","OW405"
"2023-04-26 02:00",18.7770111259639,"Approved","OW405"
"2023-04-26 03:00",18.7790084991623,"Approved","OW405"
"2023-04-26 04:00",18.7800058723608,"Approved","OW405"
"2023-04-26 05:00",18.7810032455592,"Approved","OW405"
"2023-04-26 06:00",18.7810006187577,"Approved","OW405"
"2023-04-26 07:00",18.7809979919562,"Approved","OW405"
"2023-04-26 08:00",18.7819953651546,"Approved","OW405"
"2023-04-26 09:00",18.7819927383531,"Approved","OW405"
"2023-04-26 10:00",18.7819901115515,"Approved","OW405"
"2023-04-26 11:00",18.78198748475,"Approved","OW405"
"2023-04-26 12:00",18.7819848579484,"Approved","OW405"
"2023-04-26 13:00",18.7819822311469,"Approved","OW405"
"2023-04-26 14:00",18.7819796043453,"Approved","OW405"
"2023-04-26 15:00",18.7819769775438,"Approved","OW405"
"2023-04-26 16:00",18.7819743507422,"Approved","OW405"
"2023-04-26 17:00",18.7819717239407,"Approved","OW405"
"2023-04-26 18:00",18.7819690971391,"Approved","OW405"
"2023-04-26 19:00",18.7809664703376,"Approved","OW405"
"2023-04-26 20:00",18.780963843536,"Approved","OW405"
"2023-04-26 21:00",18.7799612167345,"Approved","OW405"
"2023-04-26 22:00",18.7799585899329,"Approved","OW405"
"2023-04-26 23:00",18.7799559631314,"Approved","OW405"
"2023-04-27 00:00",18.7789533363298,"Approved","OW405"
"2023-04-27 01:00",18.7779507095283,"Approved","OW405"
"2023-04-27 02:00",18.7789480827267,"Approved","OW405"
"2023-04-27 03:00",18.7799454559252,"Approved","OW405"
"2023-04-27 04:00",18.7809428291236,"Approved","OW405"
"2023-04-27 05:00",18.7809402023221,"Approved","OW405"
"2023-04-27 06:00",18.7809375755205,"Approved","OW405"
"2023-04-27 07:00",18.781934948719,"Approved","OW405"
"2023-04-27 08:00",18.7819323219174,"Approved","OW405"
"2023-04-27 09:00",18.7819296951159,"Approved","OW405"
"2023-04-27 10:00",18.7829270683144,"Approved","OW405"
"2023-04-27 11:00",18.7829244415128,"Approved","OW405"
"2023-04-27 12:00",18.7829218147113,"Approved","OW405"
"2023-04-27 13:00",18.7829191879097,"Approved","OW405"
"2023-04-27 14:00",18.7829165611082,"Approved","OW405"
"2023-04-27 15:00",18.7829139343066,"Approved","OW405"
"2023-04-27 16:00",18.7819113075051,"Approved","OW405"
"2023-04-27 17:00",18.7819086807035,"Approved","OW405"
"2023-04-27 18:00",18.780906053902,"Approved","OW405"
"2023-04-27 19:00",18.7799034271004,"Approved","OW405"
"2023-04-27 20:00",18.7789008002989,"Approved","OW405"
"2023-04-27 21:00",18.7788981734973,"Approved","OW405"
"2023-04-27 22:00",18.7788955466958,"Approved","OW405"
"2023-04-27 23:00",18.7778929198942,"Approved","OW405"
"2023-04-28 00:00",18.7768902930927,"Approved","OW405"
"2023-04-28 01:00",18.7768876662911,"Approved","OW405"
"2023-04-28 02:00",18.7778850394896,"Approved","OW405"
"2023-04-28 03:00",18.779882412688,"Approved","OW405"
"2023-04-28 04:00",18.7808797858865,"Approved","OW405"
"2023-04-28 05:00",18.7818771590849,"Approved","OW405"
"2023-04-28 06:00",18.7828745322834,"Approved","OW405"
"2023-04-28 07:00",18.7828719054818,"Approved","OW405"
"2023-04-28 08:00",18.7828692786803,"Approved","OW405"
"2023-04-28 09:00",18.7828666518787,"Approved","OW405"
"2023-04-28 10:00",18.7828640250772,"Approved","OW405"
"2023-04-28 11:00",18.7828613982757,"Approved","OW405"
"2023-04-28 12:00",18.7828587714741,"Approved","OW405"
"2023-04-28 13:00",18.7828561446726,"Approved","OW405"
"2023-04-28 14:00",18.782853517871,"Approved","OW405"
"2023-04-28 15:00",18.7828508910695,"Approved","OW405"
"2023-04-28 16:00",18.7818482642679,"Approved","OW405"
"2023-04-28 17:00",18.7808456374664,"Approved","OW405"
"2023-04-28 18:00",18.7788430106648,"Approved","OW405"
"2023-04-28 19:00",18.7768403838633,"Approved","OW405"
"2023-04-28 20:00",18.7748377570617,"Approved","OW405"
"2023-04-28 21:00",18.7758351302602,"Approved","OW405"
"2023-04-28 22:00",18.7758325034586,"Approved","OW405"
"2023-04-28 23:00",18.7748298766571,"Approved","OW405"
"2023-04-29 00:00",18.7748272498555,"Approved","OW405"
"2023-04-29 01:00",18.774824623054,"Approved","OW405"
"2023-04-29 02:00",18.7758219962524,"Approved","OW405"
"2023-04-29 03:00",18.7778193694509,"Approved","OW405"
"2023-04-29 04:00",18.7798167426493,"Approved","OW405"
"2023-04-29 05:00",18.7808141158478,"Approved","OW405"
"2023-04-29 06:00",18.7818114890462,"Approved","OW405"
"2023-04-29 07:00",18.7828088622447,"Approved","OW405"
"2023-04-29 08:00",18.7838062354431,"Approved","OW405"
"2023-04-29 09:00",18.7838036086416,"Approved","OW405"
"2023-04-29 10:00",18.78380098184,"Approved","OW405"
"2023-04-29 11:00",18.7837983550385,"Approved","OW405"
"2023-04-29 12:00",18.7837957282369,"Approved","OW405"
"2023-04-29 13:00",18.7837931014354,"Approved","OW405"
"2023-04-29 14:00",18.7847904746339,"Approved","OW405"
"2023-04-29 15:00",18.7837878478323,"Approved","OW405"
"2023-04-29 16:00",18.7827852210308,"Approved","OW405"
"2023-04-29 17:00",18.7797825942292,"Approved","OW405"
"2023-04-29 18:00",18.7777799674277,"Approved","OW405"
"2023-04-29 19:00",18.7767773406261,"Approved","OW405"
"2023-04-29 20:00",18.7757747138246,"Approved","OW405"
"2023-04-29 21:00",18.775772087023,"Approved","OW405"
"2023-04-29 22:00",18.7757694602215,"Approved","OW405"
"2023-04-29 23:00",18.7747668334199,"Approved","OW405"
"2023-04-30 00:00",18.7737642066184,"Approved","OW405"
"2023-04-30 01:00",18.7737615798168,"Approved","OW405"
"2023-04-30 02:00",18.7757589530153,"Approved","OW405"
"2023-04-30 03:00",18.7777563262137,"Approved","OW405"
"2023-04-30 04:00",18.7797536994122,"Approved","OW405"
"2023-04-30 05:00",18.7817510726106,"Approved","OW405"
"2023-04-30 06:00",18.7827484458091,"Approved","OW405"
"2023-04-30 07:00",18.7827458190075,"Approved","OW405"
"2023-04-30 08:00",18.783743192206,"Approved","OW405"
"2023-04-30 09:00",18.7837405654044,"Approved","OW405"
"2023-04-30 10:00",18.7847379386029,"Approved","OW405"
"2023-04-30 11:00",18.7847353118013,"Approved","OW405"
"2023-04-30 12:00",18.7847326849998,"Approved","OW405"
"2023-04-30 13:00",18.7847300581982,"Approved","OW405"
"2023-04-30 14:00",18.7847274313967,"Approved","OW405"
"2023-04-30 15:00",18.7847248045952,"Approved","OW405"
"2023-04-30 16:00",18.7837221777936,"Approved","OW405"
"2023-04-30 17:00",18.7827195509921,"Approved","OW405"
"2023-04-30 18:00",18.7817169241905,"Approved","OW405"
"2023-04-30 19:00",18.780714297389,"Approved","OW405"
"2023-04-30 20:00",18.7787116705874,"Approved","OW405"
"2023-04-30 21:00",18.7777090437859,"Approved","OW405"
"2023-04-30 22:00",18.7757064169843,"Approved","OW405"
"2023-04-30 23:00",18.7737037901828,"Approved","OW405"
"2023-05-01 00:00",18.7737011633812,"Approved","OW405"
"2023-05-01 01:00",18.7746985365797,"Approved","OW405"
"2023-05-01 02:00",18.7766959097781,"Approved","OW405"
"2023-05-01 03:00",18.7786932829766,"Approved","OW405"
"2023-05-01 04:00",18.779690656175,"Approved","OW405"
"2023-05-01 05:00",18.7816880293735,"Approved","OW405"
"2023-05-01 06:00",18.7826854025719,"Approved","OW405"
"2023-05-01 07:00",18.7826827757704,"Approved","OW405"
"2023-05-01 08:00",18.7836801489688,"Approved","OW405"
"2023-05-01 09:00",18.7836775221673,"Approved","OW405"
"2023-05-01 10:00",18.7836748953657,"Approved","OW405"
"2023-05-01 11:00",18.7846722685642,"Approved","OW405"
"2023-05-01 12:00",18.7846696417626,"Approved","OW405"
"2023-05-01 13:00",18.7846670149611,"Approved","OW405"
"2023-05-01 14:00",18.7846643881595,"Approved","OW405"
"2023-05-01 15:00",18.784661761358,"Approved","OW405"
"2023-05-01 16:00",18.7846591345564,"Approved","OW405"
"2023-05-01 17:00",18.7826565077549,"Approved","OW405"
"2023-05-01 18:00",18.7826538809534,"Approved","OW405"
"2023-05-01 19:00",18.7816512541518,"Approved","OW405"
"2023-05-01 20:00",18.7826486273503,"Approved","OW405"
"2023-05-01 21:00",18.7816460005487,"Approved","OW405"
"2023-05-01 22:00",18.7796433737472,"Approved","OW405"
"2023-05-01 23:00",18.7796407469456,"Approved","OW405"
"2023-05-02 00:00",18.7786381201441,"Approved","OW405"
"2023-05-02 01:00",18.7776354933425,"Approved","OW405"
"2023-05-02 02:00",18.778632866541,"Approved","OW405"
"2023-05-02 03:00",18.7816302397394,"Approved","OW405"
"2023-05-02 04:00",18.7826276129379,"Approved","OW405"
"2023-05-02 05:00",18.7836249861363,"Approved","OW405"
"2023-05-02 06:00",18.7846223593348,"Approved","OW405"
"2023-05-02 07:00",18.7846197325332,"Approved","OW405"
"2023-05-02 08:00",18.7846171057317,"Approved","OW405"
"2023-05-02 09:00",18.7856144789301,"Approved","OW405"
"2023-05-02 10:00",18.7846118521286,"Approved","OW405"
"2023-05-02 11:00",18.784609225327,"Approved","OW405"
"2023-05-02 12:00",18.7856065985255,"Approved","OW405"
"2023-05-02 13:00",18.7856039717239,"Approved","OW405"
"2023-05-02 14:00",18.7856013449224,"Approved","OW405"
"2023-05-02 15:00",18.7845987181208,"Approved","OW405"
"2023-05-02 16:00",18.7835960913193,"Approved","OW405"
"2023-05-02 17:00",18.7825934645177,"Approved","OW405"
"2023-05-02 18:00",18.7815908377162,"Approved","OW405"
"2023-05-02 19:00",18.7815882109147,"Approved","OW405"
"2023-05-02 20:00",18.7805855841131,"Approved","OW405"
"2023-05-02 21:00",18.7795829573116,"Approved","OW405"
"2023-05-02 22:00",18.77858033051,"Approved","OW405"
"2023-05-02 23:00",18.7785777037085,"Approved","OW405"
"2023-05-03 00:00",18.7775750769069,"Approved","OW405"
"2023-05-03 01:00",18.7775724501054,"Approved","OW405"
"2023-05-03 02:00",18.7785698233038,"Approved","OW405"
"2023-05-03 03:00",18.7805671965023,"Approved","OW405"
"2023-05-03 04:00",18.7815645697007,"Approved","OW405"
"2023-05-03 05:00",18.7835619428992,"Approved","OW405"
"2023-05-03 06:00",18.7845593160976,"Approved","OW405"
"2023-05-03 07:00",18.7855566892961,"Approved","OW405"
"2023-05-03 08:00",18.7855540624945,"Approved","OW405"
"2023-05-03 09:00",18.786551435693,"Approved","OW405"
"2023-05-03 10:00",18.7865488088914,"Approved","OW405"
"2023-05-03 11:00",18.7855461820899,"Approved","OW405"
"2023-05-03 12:00",18.7865435552883,"Approved","OW405"
"2023-05-03 13:00",18.7855409284868,"Approved","OW405"
"2023-05-03 14:00",18.7865383016852,"Approved","OW405"
"2023-05-03 15:00",18.7865356748837,"Approved","OW405"
"2023-05-03 16:00",18.7845330480821,"Approved","OW405"
"2023-05-03 17:00",18.7815304212806,"Approved","OW405"
"2023-05-03 18:00",18.780527794479,"Approved","OW405"
"2023-05-03 19:00",18.7805251676775,"Approved","OW405"
"2023-05-03 20:00",18.780522540876,"Approved","OW405"
"2023-05-03 21:00",18.7775199140744,"Approved","OW405"
"2023-05-03 22:00",18.7755172872729,"Approved","OW405"
"2023-05-03 23:00",18.7745146604713,"Approved","OW405"
"2023-05-04 00:00",18.7735120336698,"Approved","OW405"
"2023-05-04 01:00",18.7745094068682,"Approved","OW405"
"2023-05-04 02:00",18.7765067800667,"Approved","OW405"
"2023-05-04 03:00",18.7795041532651,"Approved","OW405"
"2023-05-04 04:00",18.7815015264636,"Approved","OW405"
"2023-05-04 05:00",18.783498899662,"Approved","OW405"
"2023-05-04 06:00",18.7844962728605,"Approved","OW405"
"2023-05-04 07:00",18.7854936460589,"Approved","OW405"
"2023-05-04 08:00",18.7864910192574,"Approved","OW405"
"2023-05-04 09:00",18.7864883924558,"Approved","OW405"
"2023-05-04 10:00",18.7864857656543,"Approved","OW405"
"2023-05-04 11:00",18.7874831388527,"Approved","OW405"
"2023-05-04 12:00",18.7874805120512,"Approved","OW405"
"2023-05-04 13:00",18.7874778852496,"Approved","OW405"
"2023-05-04 14:00",18.7874752584481,"Approved","OW405"
"2023-05-04 15:00",18.7864726316465,"Approved","OW405"
"2023-05-04 16:00",18.784470004845,"Approved","OW405"
"2023-05-04 17:00",18.7834673780434,"Approved","OW405"
"2023-05-04 18:00",18.7824647512419,"Approved","OW405"
"2023-05-04 19:00",18.7814621244403,"Approved","OW405"
"2023-05-04 20:00",18.7804594976388,"Approved","OW405"
"2023-05-04 21:00",18.7794568708373,"Approved","OW405"
"2023-05-04 22:00",18.7784542440357,"Approved","OW405"
"2023-05-04 23:00",18.7774516172342,"Approved","OW405"
"2023-05-05 00:00",18.7764489904326,"Approved","OW405"
"2023-05-05 01:00",18.7774463636311,"Approved","OW405"
"2023-05-05 02:00",18.7794437368295,"Approved","OW405"
"2023-05-05 03:00",18.781441110028,"Approved","OW405"
"2023-05-05 04:00",18.7844384832264,"Approved","OW405"
"2023-05-05 05:00",18.7844358564249,"Approved","OW405"
"2023-05-05 06:00",18.7854332296233,"Approved","OW405"
"2023-05-05 07:00",18.7854306028218,"Approved","OW405"
"2023-05-05 08:00",18.7864279760202,"Approved","OW405"
"2023-05-05 09:00",18.7864253492187,"Approved","OW405"
"2023-05-05 10:00",18.7874227224171,"Approved","OW405"
"2023-05-05 11:00",18.7874200956156,"Approved","OW405"
"2023-05-05 12:00",18.787417468814,"Approved","OW405"
"2023-05-05 13:00",18.7874148420125,"Approved","OW405"
"2023-05-05 14:00",18.7884122152109,"Approved","OW405"
"2023-05-05 15:00",18.7884095884094,"Approved","OW405"
"2023-05-05 16:00",18.7884069616078,"Approved","OW405"
"2023-05-05 17:00",18.7884043348063,"Approved","OW405"
"2023-05-05 18:00",18.7894017080047,"Approved","OW405"
"2023-05-05 19:00",18.7893990812032,"Approved","OW405"